Weather History for Langdon, ND

Change the Weather History Date:

Thursday, January 17, 2013

  Actual Average (KDVL) Record (KDVL)
Temperature  
Mean Temperature 2 °F -  
Max Temperature 8 °F 18 °F 46 °F (1972)
Min Temperature -4 °F -1 °F -31 °F (1962)
Degree Days  
Heating Degree Days 63    
Moisture  
Dew Point -2 °F    
Average Humidity 84    
Maximum Humidity 92    
Minimum Humidity 78    
Precipitation  
Precipitation 0.00 in - - ()
Sea Level Pressure  
Sea Level Pressure 30.20 in    
Wind  
Wind Speed 13 mph (West)    
Max Wind Speed 23 mph    
Max Gust Speed 31 mph    
Visibility 9 miles    
Events Snow    
Averages and records for this station are not official NWS values.
T = Trace of Precipitation, MM = Missing Value Source: NWS Daily Summary

Daily Weather History Graph

Daily Weather History Graph

Search for Another Location

Airport:

Trip Planner

Search our weather history database for the weather conditions in past years. The results will help you decide how hot, cold, wet, or windy it might be!

Date:

Astronomy

Jan. 17, 2013 Rise Set
Actual Time 8:19 AM CST 5:08 PM CST
Civil Twilight 7:44 AM CST 5:44 PM CST
Nautical Twilight 7:05 AM CST 6:23 PM CST
Astronomical Twilight 6:27 AM CST 7:00 PM CST
Moon 10:50 AM CST (1/17) No Moon Set
Length of Visible Light 9h 59m
Length of Day
8h 49m
Waxing Crescent, 38% of the Moon is Illuminated
Jan 17
Waxing Crescent
Jan 18
First Quarter
Jan 26
Full
Feb 3
Last Quarter
Feb 10
New

Hourly Weather History & Observations

Time (CST) Temp. Windchill Dew Point Humidity Pressure Visibility Wind Dir Wind Speed Gust Speed Precip Events Conditions
12:15 AM -0.4 °F -19.2 °F -4.0 °F 85% 30.13 in 5.0 mi SSW 13.8 mph - N/A   Haze
12:35 AM -0.4 °F -18.4 °F -4.0 °F 85% 30.14 in 7.0 mi SSW 12.7 mph - N/A   Overcast
12:55 AM -0.4 °F -18.4 °F -4.0 °F 85% 30.14 in 10.0 mi SSW 12.7 mph - N/A   Overcast
1:15 AM -0.4 °F -19.2 °F -4.0 °F 85% 30.14 in 10.0 mi SSW 13.8 mph - N/A   Overcast
1:35 AM -0.4 °F -19.2 °F -2.2 °F 92% 30.14 in 10.0 mi SSW 13.8 mph - N/A   Overcast
1:55 AM -0.4 °F -19.9 °F -2.2 °F 92% 30.14 in 9.0 mi SSW 15.0 mph - N/A   Overcast
2:15 AM 1.4 °F -18.2 °F -2.2 °F 85% 30.14 in 10.0 mi SW 16.1 mph - N/A   Overcast
2:35 AM 1.4 °F -17.6 °F -2.2 °F 85% 30.15 in 10.0 mi SW 15.0 mph - N/A   Overcast
2:55 AM 1.4 °F -16.9 °F -0.4 °F 92% 30.15 in 10.0 mi SW 13.8 mph - N/A   Overcast
3:35 AM 3.2 °F -13.9 °F -0.4 °F 85% 30.16 in 10.0 mi WSW 12.7 mph - N/A Snow Light Snow
3:55 AM 5.0 °F -11.6 °F 1.4 °F 85% 30.16 in 10.0 mi WSW 12.7 mph - N/A Snow Light Snow
4:15 AM 5.0 °F -11.6 °F 1.4 °F 85% 30.17 in 10.0 mi West 12.7 mph 19.6 mph N/A Snow Light Snow
4:35 AM 6.8 °F -10.7 °F 5.0 °F 92% 30.16 in 10.0 mi WNW 15.0 mph - N/A   Overcast
4:55 AM 8.6 °F -9.5 °F 5.0 °F 85% 30.17 in 10.0 mi WNW 17.3 mph - N/A   Overcast
5:15 AM 8.6 °F -11.0 °F 6.8 °F 92% 30.17 in 6.0 mi NW 20.7 mph 26.5 mph N/A   Overcast
5:35 AM 8.6 °F -11.9 °F 5.0 °F 85% 30.18 in 2.5 mi NW 23.0 mph 31.1 mph N/A   Overcast
5:55 AM 5.0 °F -14.7 °F 1.4 °F 85% 30.18 in 7.0 mi NW 18.4 mph - N/A   Overcast
6:15 AM 5.0 °F -14.7 °F -0.4 °F 78% 30.19 in 10.0 mi NW 18.4 mph - N/A   Mostly Cloudy
6:35 AM 3.2 °F -15.9 °F -0.4 °F 85% 30.19 in 10.0 mi NW 16.1 mph - N/A   Mostly Cloudy
6:55 AM 1.4 °F -18.8 °F -0.4 °F 92% 30.20 in 10.0 mi NW 17.3 mph - N/A   Mostly Cloudy
7:15 AM 1.4 °F -18.2 °F -0.4 °F 92% 30.21 in 10.0 mi NNW 16.1 mph 23.0 mph N/A   Mostly Cloudy
7:35 AM -0.4 °F -19.2 °F -2.2 °F 92% 30.23 in 10.0 mi NNW 13.8 mph - N/A   Overcast
7:55 AM -0.4 °F -19.9 °F -2.2 °F 92% 30.23 in 10.0 mi NNW 15.0 mph - N/A   Mostly Cloudy
8:15 AM -0.4 °F -18.4 °F -4.0 °F 85% 30.24 in 8.0 mi NNW 12.7 mph - N/A   Mostly Cloudy
8:35 AM -0.4 °F -17.6 °F -4.0 °F 85% 30.26 in 10.0 mi NW 11.5 mph - N/A   Overcast
8:55 AM -2.2 °F -19.9 °F -5.8 °F 85% 30.26 in 10.0 mi NNW 11.5 mph - N/A   Scattered Clouds
9:15 AM -0.4 °F -16.7 °F -4.0 °F 85% 30.28 in 10.0 mi NW 10.4 mph - N/A   Clear
9:35 AM -2.2 °F -18.9 °F -7.6 °F 78% 30.30 in 10.0 mi WNW 10.4 mph - N/A   Clear
9:55 AM -4.0 °F -19.0 °F -9.4 °F 78% 30.30 in 10.0 mi WNW 8.1 mph - N/A   Partly Cloudy
10:15 AM -4.0 °F -20.2 °F -9.4 °F 78% 30.30 in 10.0 mi West 9.2 mph - N/A   Clear
10:35 AM -2.2 °F -18.0 °F -7.6 °F 78% 30.30 in 10.0 mi WNW 9.2 mph - N/A   Clear
10:55 AM -2.2 °F -18.9 °F -7.6 °F 78% 30.31 in 10.0 mi West 10.4 mph - N/A   Clear
11:15 AM -2.2 °F -18.0 °F -7.6 °F 78% 30.31 in 10.0 mi West 9.2 mph - N/A   Clear
11:35 AM -2.2 °F -15.6 °F -7.6 °F 78% 30.30 in 10.0 mi WNW 6.9 mph - N/A   Clear
11:55 AM -0.4 °F -13.4 °F -5.8 °F 78% 30.30 in 10.0 mi WNW 6.9 mph - N/A   Clear
12:15 PM -0.4 °F -13.4 °F -5.8 °F 78% 30.30 in 10.0 mi West 6.9 mph - N/A   Clear
12:35 PM -0.4 °F -15.7 °F -4.0 °F 85% 30.30 in 10.0 mi WNW 9.2 mph - N/A   Clear
12:55 PM -0.4 °F -16.7 °F -4.0 °F 85% 30.29 in 10.0 mi NW 10.4 mph - N/A   Clear
1:15 PM -0.4 °F -17.6 °F -4.0 °F 85% 30.28 in 10.0 mi WNW 11.5 mph - N/A   Clear
1:35 PM -0.4 °F -15.7 °F -4.0 °F 85% 30.28 in 10.0 mi WNW 9.2 mph - N/A   Clear
1:55 PM 1.4 °F -12.5 °F -4.0 °F 78% 30.28 in 10.0 mi WNW 8.1 mph - N/A   Clear
2:15 PM 1.4 °F -11.3 °F -4.0 °F 78% 30.27 in 10.0 mi WNW 6.9 mph - N/A   Clear
2:35 PM 1.4 °F -11.3 °F -4.0 °F 78% 30.26 in 10.0 mi West 6.9 mph - N/A   Clear
2:55 PM -0.4 °F -14.7 °F -4.0 °F 85% 30.26 in 10.0 mi West 8.1 mph - N/A   Clear
3:15 PM -0.4 °F -12.0 °F -4.0 °F 85% 30.25 in 10.0 mi West 5.8 mph - N/A   Clear
3:35 PM -0.4 °F -8.3 °F -4.0 °F 85% 30.25 in 10.0 mi West 3.5 mph - N/A   Clear
3:55 PM -0.4 °F -10.4 °F -4.0 °F 85% 30.25 in 10.0 mi WSW 4.6 mph - N/A   Clear
4:55 PM 1.4 °F -8.3 °F -2.2 °F 85% 30.23 in 10.0 mi SW 4.6 mph - N/A   Overcast
5:35 PM 1.4 °F -11.3 °F -2.2 °F 85% 30.23 in 10.0 mi SW 6.9 mph - N/A   Mostly Cloudy
7:55 PM 3.2 °F -13.9 °F -0.4 °F 85% 30.15 in 10.0 mi South 12.7 mph - N/A   Overcast
8:15 PM 3.2 °F -12.2 °F -0.4 °F 85% 30.14 in 10.0 mi South 10.4 mph - N/A   Overcast
8:55 PM 5.0 °F -11.6 °F -0.4 °F 78% 30.12 in 2.5 mi South 12.7 mph - N/A Snow Light Snow
9:15 PM 5.0 °F -12.3 °F -0.4 °F 78% 30.10 in 4.0 mi South 13.8 mph - N/A   Overcast
9:35 PM 5.0 °F -10.8 °F -0.4 °F 78% 30.08 in 5.0 mi South 11.5 mph - N/A Snow Light Snow
9:55 PM 5.0 °F -10.8 °F -0.4 °F 78% 30.07 in 5.0 mi SSE 11.5 mph - N/A Snow Light Snow
11:15 PM 6.8 °F -11.3 °F 5.0 °F 92% 29.98 in 2.5 mi SSE 16.1 mph - N/A Snow Light Snow
11:35 PM 6.8 °F -10.7 °F 5.0 °F 92% 29.97 in 2.0 mi SSE 15.0 mph - N/A Snow Light Snow
11:55 PM 6.8 °F -11.3 °F 5.0 °F 92% 29.96 in 1.8 mi SSE 16.1 mph - N/A Snow Light Snow